ראשי / חיפושים אחרונים

חיפושים אחרונים

לוחית
סוג רכב
דגם
שנה
תאריך חיפוש
שעת חיפוש
7691671 טויוטה יפן LAND CRUISER 2010 02/09/2026 07:30:03
9834414 שברולט ארהב" - 2005 02/09/2026 07:30:03
1020760 טויוטה יפן COROLLA 2006 02/09/2026 07:29:58
42334204 ג'אקו סין JAECOO7 PHEV 2026 02/09/2026 07:29:48
1081476 מזדה יפן MAZDA 6 2013 02/09/2026 07:29:45
7429237 רנו טורקיה FLUENCE 2016 02/09/2026 07:29:42
7783014 טויוטה בריטניה COROLLA RUNX 2006 02/09/2026 07:29:37
3319635 יונדאי קוריאה ACCENT 2001 02/09/2026 07:29:32
6616968 פורד ספרד FOCUS 2009 02/09/2026 07:29:23
1612339 סובארו יפן FORESTER 2016 02/09/2026 07:29:22
80779003 סקודה צ'כיה OCTAVIA 2024 02/09/2026 07:29:20
6130962 טויוטה יפן COROLLA 2007 02/09/2026 07:29:19
43189501 קיה קוריאה הדרומית STONIC 2019 02/09/2026 07:29:13
85888903 אאודי סלובקיה Q8 2024 02/09/2026 07:29:10
45679104 סיטרואן סלובקיה C3 AIRCROSS 2025 02/09/2026 07:28:59
2914823 סובארו יפן IMPREZA NEW 2002 02/09/2026 07:28:53
80779003 סקודה צ'כיה OCTAVIA 2024 02/09/2026 07:28:52
1032873 יונדאי טורקיה ACCENT 2010 02/09/2026 07:28:44
80779003 סקודה צ'כיה OCTAVIA 2024 02/09/2026 07:28:41
1165762 טויוטה יפן COROLLA 2007 02/09/2026 07:28:36
8240865 מזדה יפן MAZDA 5 2009 02/09/2026 07:28:35
19494102 טויוטה טורקיה C-HR HYBRID 2020 02/09/2026 07:28:28
68797402 ב מ וו ארהב" X6 2021 02/09/2026 07:28:26
3744838 אאודי גרמניה Q5 2016 02/09/2026 07:28:23
74705604 ב מ וו גרמניה - 2026 02/09/2026 07:28:17
3603333 קיה קוריאה הדרומית PICANTO 2015 02/09/2026 07:28:09
3353159 יונדאי קוריאה הדרומית GETZ 2005 02/09/2026 07:28:08
6130962 טויוטה יפן COROLLA 2007 02/09/2026 07:28:08
55115601 מרצדס הונגריה CLA180 2019 02/09/2026 07:28:01
5283553 פולקסווגן גרמניה T5 2014 02/09/2026 07:27:51
85888903 אאודי סלובקיה Q8 2024 02/09/2026 07:27:49
7706913 דאף אנגליה - 2012 02/09/2026 07:27:46
1519954 רנו ספרד MEGANE 2013 02/09/2026 07:27:43
14777304 ב מ וו ארהב" XM 50E 2026 02/09/2026 07:27:36
114553 פורד בריטניה - 1966 02/09/2026 07:27:36
4502076 מיצובישי יפן LANCER SPORTBAC 2011 02/09/2026 07:27:35
59360901 מזדה תאילנד MAZDA 2 2019 02/09/2026 07:27:32
12078603 יונדאי קוריאה הדרומית ELANTRA HEV 2022 02/09/2026 07:27:30
80278901 טויוטה טורקיה COROLLA HSD SDN 2019 02/09/2026 07:27:28
33889501 מזדה תאילנד MAZDA 2 2018 02/09/2026 07:27:28
1365271 פולקסווגן מקסיקה JETTA 2010 02/09/2026 07:27:25
3290156 טויוטה צרפת YARIS 2004 02/09/2026 07:27:24
2854539 אופל ספרד CORSA 2016 02/09/2026 07:27:22
6615767 סובארו יפן FORESTER 2010 02/09/2026 07:27:21
7099137 רנו צרפת KANGOO 2016 02/09/2026 07:27:20
83598903 יונדאי קוריאה הדרומית VENUE 2024 02/09/2026 07:27:15
20033404 אמ.בי.פי איטלי - 2025 02/09/2026 07:27:13
1814465 הונדה יפן CIVIC 2008 02/09/2026 07:27:10
16678702 טויוטה טורקיה COROLLA HSD SDN 2020 02/09/2026 07:27:09
60051202 סיאט ספרד IBIZA 2021 02/09/2026 07:26:58
85888903 אאודי סלובקיה Q8 2024 02/09/2026 07:26:58
59522603 ניסאן בריטניה QASHQAI 2024 02/09/2026 07:26:51
5056272 שברולט קוריאה הדרומית CRUZE 1.6 LS 2011 02/09/2026 07:26:48
48944203 סיטרואן ספרד BERLINGO 2023 02/09/2026 07:26:47
7954776 פולקסווגן ספרד POLO 2012 02/09/2026 07:26:44
22397403 טויוטה יפן COROLLA CROSS 2022 02/09/2026 07:26:39
5038781 יונדאי קוריאה הדרומית IONIQ HYBRID 2017 02/09/2026 07:26:38
2343138 פולקסווגן גרמניה GOLF 2016 02/09/2026 07:26:34
85888903 אאודי סלובקיה Q8 2024 02/09/2026 07:26:32
8331133 וולבו שבדיה S80 T4 2015 02/09/2026 07:26:30
87744202 יונדאי טורקיה I10 2022 02/09/2026 07:26:28
1118535 רנו צרפת MASTER 2001 02/09/2026 07:26:26
2001865 הונדה יפן CIVIC 2008 02/09/2026 07:26:25
3290156 טויוטה צרפת YARIS 2004 02/09/2026 07:26:23
65303403 פיג'ו צרפת 3008 2024 02/09/2026 07:26:21
9793976 ג'יפ ארהב" - 2014 02/09/2026 07:26:19
1469411 יונדאי צ'כיה I30 2013 02/09/2026 07:26:18
5030330 לקסוס יפן LEXUS GS300H 2014 02/09/2026 07:26:17
3244910 פיג'ו צרפת 206 2001 02/09/2026 07:26:16
80728304 צ'רי סין TIGGO 7 HEV 2026 02/09/2026 07:26:14
17709401 מרצדס גרמניה GLA200 2017 02/09/2026 07:26:14
1093212 סאן יאנג טיואן - 2013 02/09/2026 07:26:13
12314303 מאן אוסטריה - 2022 02/09/2026 07:26:12
3324437 שברולט קנדה IMPALA 2016 02/09/2026 07:26:08
85888903 אאודי סלובקיה Q8 2024 02/09/2026 07:26:08
66517702 טויוטה יפן RAV 4 HYBRID 2021 02/09/2026 07:26:05
39465602 יונדאי טורקיה I10 2021 02/09/2026 07:26:04
2873166 יונדאי קוריאה הדרומית GETZ 2008 02/09/2026 07:26:00
3973415 ב מ וו גרמניה - 1996 02/09/2026 07:25:53
7802731 קיה קוריאה הדרומית FORTE 2014 02/09/2026 07:25:53
4191320 יונדאי קוריאה אקסנט 0051 SLG 1996 02/09/2026 07:25:49
2517317 הונדה יפן CIVIC 1997 02/09/2026 07:25:46
1200074 יונדאי טורקיה I20 2011 02/09/2026 07:25:45
4225433 קיה קוריאה הדרומית PICANTO 2015 02/09/2026 07:25:43
8557208 מרוטי סוזוקי הודו BALENO 2016 02/09/2026 07:25:39
4532779 קיה קוריאה הדרומית FORTE 2012 02/09/2026 07:25:36
1481658 סקניה-הולנד - 2016 02/09/2026 07:25:34
3361551 רנו ספרד CLIO II 2003 02/09/2026 07:25:32
1404631 מיצובישי תאילנד SPACE STAR 2014 02/09/2026 07:25:25
1772710 רנו ספרד MEGANE 2001 02/09/2026 07:25:24
3290156 טויוטה צרפת YARIS 2004 02/09/2026 07:25:23
39854903 ב מ וו גרמניה I4 M50 2023 02/09/2026 07:25:20
6141611 ב מ וו גרמניה 116I 2013 02/09/2026 07:25:20
38527204 פורשה גרמניה 911 TARGA 4 GTS 2026 02/09/2026 07:25:18
48752401 סיטרואן ספרד BERLINGO 2019 02/09/2026 07:25:05
5095730 טויוטה טורקיה COROLLA 2014 02/09/2026 07:25:01
38527204 פורשה גרמניה 911 TARGA 4 GTS 2026 02/09/2026 07:25:00
38527204 פורשה גרמניה 911 TARGA 4 GTS 2026 02/09/2026 07:25:00
38527204 פורשה גרמניה 911 TARGA 4 GTS 2026 02/09/2026 07:24:59
8493038 קיה סלובקיה CEED 2016 02/09/2026 07:24:59
17772102 סקודה צ'כיה KODIAQ 2020 02/09/2026 07:24:58
92729301 מרצדס בנץ גרמנ - 2021 02/09/2026 07:24:56
7780784 דאצ'יה רומניה DUSTER 2017 02/09/2026 07:24:56
38527204 פורשה גרמניה 911 TARGA 4 GTS 2026 02/09/2026 07:24:51
1625831 מיצובישי תאילנד ATTRAGE 2014 02/09/2026 07:24:38
6612764 יגואר בריטניה XJ6 3.0 2008 02/09/2026 07:24:32
5727316 ב מ וו גרמניה 530I 2005 02/09/2026 07:24:32
7595609 טויוטה טורקיה COROLLA 2017 02/09/2026 07:24:29
22464601 סוזוקי תאילנד CELERIO 2017 02/09/2026 07:24:29
47480001 קאדילאק ארהב" CTS-V 2018 02/09/2026 07:24:25
8043330 פיג'ו צרפת 3008 2015 02/09/2026 07:24:25
4655764 רנו טורקיה MEGANE II 2008 02/09/2026 07:24:24
32265001 קואנג יאנג טיו - 2018 02/09/2026 07:24:23
3290156 טויוטה צרפת YARIS 2004 02/09/2026 07:24:22
75245801 מרוטי סוזוקי הודו BALENO 2019 02/09/2026 07:24:21
15094904 טויוטה טורקיה COROLLA SDN HSD 2024 02/09/2026 07:24:18
3799951 קאדילאק ארהב" CTS 2003 02/09/2026 07:24:18
37608804 פורד ד אפריקה RANGER 2025 02/09/2026 07:24:15
2834666 יונדאי טורקיה ACCENT 2008 02/09/2026 07:24:12
18785201 ניסאן בריטניה QASHQAI 2017 02/09/2026 07:24:12
1147239 דאף אנגליה - 2018 02/09/2026 07:24:10
35484002 וולבו שבדיה V60CC B5 2022 02/09/2026 07:24:10
5554167 דייהטסו יפן TERIOS 2009 02/09/2026 07:24:08
2894412 אאודי בלגיה A1 2013 02/09/2026 07:24:07
52576001 יונדאי קוריאה הדרומית I25 2018 02/09/2026 07:24:06
3094237 טויוטה טורקיה COROLLA 2016 02/09/2026 07:24:04
9631164 סוזוקי יפן JIMNY 2008 02/09/2026 07:24:02
4913134 סקודה צ'כיה NEW SUPERB 2015 02/09/2026 07:23:58
1955075 סובארו יפן OUTBACK 2013 02/09/2026 07:23:57
77780803 יונדאי קוריאה הדרומית KONA HYBRID 2024 02/09/2026 07:23:57
83596202 פולקסווגן מקסיקה TIGUAN ALLSPACE 2022 02/09/2026 07:23:57
9631164 סוזוקי יפן JIMNY 2008 02/09/2026 07:23:52
3406078 וולבו בלגיה S60 T5 2011 02/09/2026 07:23:48
9740074 מרצדס בנץ גרמנ - 2012 02/09/2026 07:23:46
1073584 רנו טורקיה FLUENCE 2017 02/09/2026 07:23:45
4728362 רנו צרפת KANGOO 2007 02/09/2026 07:23:43
6476557 יונדאי קוריאה הדרומית GETZ 2005 02/09/2026 07:23:42
51647301 יונדאי קוריאה הדרומית KONA 2018 02/09/2026 07:23:38
9499968 קרייזלר ארהב" - 2008 02/09/2026 07:23:34
7105463 מזדה יפן MAZDA 5 2008 02/09/2026 07:23:24
56847001 אקסיס טיוואן - 2019 02/09/2026 07:23:22
1204439 איווקו איטליה - 2016 02/09/2026 07:23:21
4154580 סיאט ספרד LEON 2017 02/09/2026 07:23:19
60194403 רנו טורקיה MEGANE 2024 02/09/2026 07:23:18
82292502 טויוטה יפן RAV 4 HYBRID 2022 02/09/2026 07:23:18
13505004 פולקסווגן פורטוגל T-ROC 2025 02/09/2026 07:23:18
4306580 סקודה צ'כיה NEW OCTAVIA 2017 02/09/2026 07:23:17
8204833 וולבו בלגיה XC60 T6 2015 02/09/2026 07:23:16
6766776 אאודי בלגיה A1 2012 02/09/2026 07:23:14
68646602 מזדה יפן MX-30 2021 02/09/2026 07:23:14
8466385 אופל פולין ASTRA BERLINA 2017 02/09/2026 07:23:05
1130167 פיאט איטליה GRANDE PUNT0 2009 02/09/2026 07:23:04
86093201 ניסאן בריטניה QASHQAI 2020 02/09/2026 07:22:59
75101704 רנו ספרד SYMBIOZ HYBRID 2026 02/09/2026 07:22:57
46828203 סקודה צ'כיה OCTAVIA 2023 02/09/2026 07:22:55
4934033 קיה קוריאה הדרומית PICANTO 2015 02/09/2026 07:22:55
60925804 קיה קוריאה הדרומית SPORTAGE HEV 2026 02/09/2026 07:22:49
3025551 טויוטה טורקיה COROLLA 2004 02/09/2026 07:22:46
8204833 וולבו בלגיה XC60 T6 2015 02/09/2026 07:22:34
8818968 מזדה יפן MAZDA 2 2010 02/09/2026 07:22:33
60347103 פיאט איטליה - 2024 02/09/2026 07:22:31
3326054 ניסאן בריטניה QASHQAI 2014 02/09/2026 07:22:27
20835503 סיאט ספרד ARONA 2022 02/09/2026 07:22:16
3818771 מזדה יפן MAZDA 3 2010 02/09/2026 07:22:15
1604073 מיצובישי יפן GRANDIS 2010 02/09/2026 07:22:14
2795774 טויוטה יפן COROLLA 2011 02/09/2026 07:22:12
5185836 פולקסווגן גרמניה GOLF 2002 02/09/2026 07:22:12
1258034 מרצדס הונגריה CLA250 2016 02/09/2026 07:22:10
20293301 ניסאן בריטניה QASHQAI 2018 02/09/2026 07:22:08
9440969 קשבורר טורקיה - 2009 02/09/2026 07:22:07
8286634 סיטרואן ספרד BERLINGO 2015 02/09/2026 07:22:04
6398833 קיה קוריאה הדרומית FORTE 2015 02/09/2026 07:22:02
1042585 קיה קוריאה הדרומית PICANTO 2016 02/09/2026 07:21:59
21958601 ניסאן יפן X-TRAIL 2018 02/09/2026 07:21:56
34740901 פולקסווגן מקסיקה JETTA 2017 02/09/2026 07:21:55
3407556 טויוטה יפן LAND CRUISER 2004 02/09/2026 07:21:50
21231903 ימהה יפן - 2022 02/09/2026 07:21:47
5928965 פורד ספרד FOCUS 2008 02/09/2026 07:21:47
58332404 יונדאי קוריאה הדרומית KONA HYBRID 2026 02/09/2026 07:21:45
84790303 קיה קוריאה הדרומית PICANTO 2024 02/09/2026 07:21:44
57564504 קוואסאקי יפן - 2026 02/09/2026 07:21:43
66151502 טויוטה יפן RAV 4 HYBRID 2021 02/09/2026 07:21:41
3732469 מזדה יפן MAZDA 3 2009 02/09/2026 07:21:38
1184433 פיאט טורקיה QUBO 2015 02/09/2026 07:21:33
41600503 גילי סין GEOMETRY C 2023 02/09/2026 07:21:32
2014939 סובארו יפן XV 2016 02/09/2026 07:21:32
2685578 פיג'ו צ'כיה 107 2011 02/09/2026 07:21:29
1203710 טויוטה יפן HILUX 2001 02/09/2026 07:21:29
1024072 סאנגיונג קוריאה הדרומית REXTON 2009 02/09/2026 07:21:24
34285301 ב מ וו גרמניה 740LE IPERFORMA 2018 02/09/2026 07:21:21
6870880 קי.טי.אמ אוסטר - 2017 02/09/2026 07:21:19
6298639 יונדאי טורקיה I10 2016 02/09/2026 07:21:18
47950103 יונדאי טורקיה I20 2023 02/09/2026 07:21:17
2639530 ב מ וו גרמניה X1 SDRIVE 18I 2016 02/09/2026 07:21:16
2853260 סובארו יפן IMPREZA 2006 02/09/2026 07:21:15
2639530 ב מ וו גרמניה X1 SDRIVE 18I 2016 02/09/2026 07:21:11
79791602 גולדן דרגון סי - 2022 02/09/2026 07:21:10
7278113 אופל פולין ASTRA 2012 02/09/2026 07:21:08
2639530 ב מ וו גרמניה X1 SDRIVE 18I 2016 02/09/2026 07:21:06
3589054 סיאט ספרד IBIZA 2015 02/09/2026 07:21:05
וואטסאפ